DW8397 Weather Reports


Display with metric or nautical units.
time (UTC)temp
F
wind
direction
speed
MPH
gust
MPH
rain 1hr
in
rain 24hr
in
rain mn
in
humidity
%
barometer
mb
20260503231555 46 360 0.0 6.0 0.00 0.00 0.00 46 1007.6
20260503230057 47 262 6.0 11.0 0.00 0.00 0.00 44 1007.5
20260503224554 47 328 3.0 8.0 0.00 0.00 0.00 46 1007.6
20260503223054 47 316 4.0 13.0 0.00 0.00 0.00 44 1007.5
20260503221554 48 257 6.0 17.0 0.00 0.00 0.00 44 1007.5
20260503220053 48 319 7.0 18.0 0.00 0.00 0.00 43 1007.4
20260503214551 47 304 6.0 16.0 0.00 0.00 0.00 49 1007.3
20260503213049 46 278 2.0 9.0 0.00 0.00 0.00 49 1007.3
20260503211548 46 331 8.0 13.0 0.00 0.00 0.00 48 1007.4
20260503210048 45 271 8.0 15.0 0.00 0.00 0.00 50 1007.4
20260503204552 46 323 4.0 17.0 0.00 0.00 0.00 50 1007.3
20260503203046 46 296 5.0 14.0 0.00 0.00 0.00 50 1007.4
20260503201546 45 302 8.0 21.0 0.00 0.00 0.00 48 1007.4
20260503200045 47 235 6.0 15.0 0.00 0.00 0.00 48 1007.3
20260503194546 45 257 6.0 18.0 0.00 0.00 0.00 51 1007.6
20260503193042 46 291 6.0 18.0 0.00 0.00 0.00 49 1007.6
20260503191540 46 266 4.0 14.0 0.00 0.00 0.00 53 1007.6
20260503190040 45 329 7.0 18.0 0.00 0.00 0.00 49 1007.9
20260503184557 45 281 8.0 20.0 0.00 0.00 0.00 49 1007.8
20260503183042 45 311 7.0 16.0 0.00 0.00 0.00 49 1007.8
20260503181540 45 283 7.0 16.0 0.00 0.00 0.00 49 1007.7
20260503180040 45 301 9.0 21.0 0.00 0.00 0.00 49 1007.7
20260503174537 45 240 6.0 14.0 0.00 0.00 0.00 55 1007.7
20260503173038 44 226 5.0 15.0 0.00 0.00 0.00 56 1007.8
20260503171557 44 267 5.0 19.0 0.00 0.00 0.00 58 1007.5
20260503081509 37 305 5.0 8.0 0.00 0.04 0.00 87 1008.5
20260503071611 36 348 0.0 1.0 0.00 0.06 0.00 91 1008.9
20260503054559 36 322 0.0 0.0 0.00 0.09 0.00 91 1009.6
20260503053049 36 322 0.0 0.0 0.00 0.09 0.00 91 1009.8
20260503051547 36 322 0.0 0.0 0.00 0.09 0.00 91 1009.9
20260503050048 36 322 0.0 0.0 0.00 0.09 0.00 91 1010.0
20260503044552 36 322 0.0 0.0 0.00 0.14 0.00 91 1010.1
20260503043048 36 322 0.0 0.0 0.00 0.14 0.00 91 1010.2
20260503041543 36 322 0.0 0.0 0.00 0.14 0.00 90 1010.3
20260503040041 36 321 0.0 0.0 0.00 0.14 0.00 89 1010.4
20260503034538 36 360 0.0 0.0 0.00 0.14 0.14 89 1010.5
20260503033035 36 360 0.0 0.0 0.00 0.14 0.14 88 1010.6
20260503031535 37 360 0.0 0.0 0.00 0.14 0.14 88 1010.7
20260503030032 37 348 0.0 0.0 0.00 0.14 0.14 88 1010.7
20260503024532 37 15 0.0 0.0 0.00 0.14 0.14 87 1010.7
20260503023030 38 335 0.0 0.0 0.00 0.14 0.14 86 1010.7
20260503021529 38 335 0.0 0.0 0.00 0.14 0.14 86 1010.8
20260503020028 38 360 1.0 7.0 0.00 0.14 0.14 86 1010.8
20260503014527 39 343 0.0 5.0 0.00 0.14 0.14 85 1011.0
20260503013025 39 355 0.0 5.0 0.00 0.14 0.14 84 1010.9
20260503011524 39 338 0.0 4.0 0.00 0.14 0.14 84 1010.9
20260503010027 40 324 0.0 4.0 0.00 0.14 0.14 83 1010.8
20260503004519 40 327 0.0 9.0 0.00 0.14 0.14 82 1010.7
20260503003019 41 333 0.0 6.0 0.00 0.14 0.14 81 1010.6
20260503001517 42 349 0.0 5.0 0.00 0.14 0.14 78 1010.5
20260503000031 43 360 2.0 9.0 0.00 0.14 0.14 76 1010.3
20260502234515 44 360 4.0 14.0 0.00 0.14 0.14 72 1010.1
20260502233013 45 348 6.0 12.0 0.00 0.14 0.14 62 1009.9